1494421200.49,19022,14.06,72756.0,-1.41,-7.01,-6.93,0,*56
1494421201.7,19023,14.06,72758.8,-1.41,-6.63,-6.55,0,*58
1494421202.93,19024,14.06,72752.0,-1.39,-6.77,-6.73,0,*51
1494421204.15,19025,14.06,72756.0,-1.31,-6.59,-6.47,0,*53
1494421205.37,19026,14.06,72752.0,-1.31,-6.81,-6.73,0,*52
1494421206.56,19027,14.06,72758.0,-1.29,-6.69,-6.55,0,*58
1494421207.78,19028,14.06,72754.5,-1.29,-6.27,-6.09,0,*54
1494421209.0,19029,14.06,72754.8,-1.27,-6.55,-6.43,0,*50
1494421210.21,19030,14.06,72756.0,-1.25,-6.23,-6.13,0,*5E
1494421211.45,19031,14.06,72754.5,-1.23,-6.39,-6.27,0,*55
1494421212.65,19032,14.06,72754.3,-1.21,-6.59,-6.55,0,*57
1494421213.88,19033,14.06,72754.3,-1.19,-6.51,-6.51,0,*51
1494421215.13,19034,14.06,72754.0,-1.19,-6.93,-6.81,0,*55
1494421216.31,19035,14.06,72754.8,-1.17,-6.69,-6.69,0,*59
1494421217.56,19036,14.06,72752.3,-1.15,-7.27,-7.31,0,*5F
1494421218.78,19037,14.06,72754.5,-1.15,-7.87,-7.95,0,*5A
1494421220.04,19038,14.06,72756.5,-1.15,-6.93,-6.93,0,*56
1494421221.25,19039,14.06,72754.3,-1.13,-8.21,-8.33,0,*52
1494421222.48,19040,14.06,72758.8,-1.13,-8.45,-8.59,0,*52
1494421223.68,19041,14.06,72756.5,-1.15,-7.83,-7.87,0,*5C
1494421224.9,19042,14.06,72752.5,-1.15,-7.65,-7.53,0,*5E
1494421226.13,19043,14.06,72756.3,-1.15,-8.11,-8.25,0,*5D
1494421227.33,19044,14.06,72754.8,-1.17,-8.85,-8.93,0,*58
1494421228.55,19045,14.06,72754.5,-1.15,-8.75,-8.81,0,*57
1494421229.77,19046,14.06,72752.8,-1.17,-8.85,-8.81,0,*59
1494421230.95,19047,14.06,72756.3,-1.17,-8.75,-8.75,0,*5C
1494421232.16,19048,14.06,72752.8,-1.17,-8.51,-8.55,0,*57
1494421233.38,19049,14.06,72754.8,-1.19,-9.05,-8.97,0,*56
1494421234.57,19050,14.06,72758.0,-1.21,-8.45,-8.55,0,*5E
1494421235.81,19051,14.06,72758.3,-1.19,-8.55,-8.51,0,*51
1494421237.09,19052,14.06,72758.3,-1.19,-7.69,-7.61,0,*5E
1494421238.33,19053,14.06,72756.8,-1.21,-7.77,-7.91,0,*54
1494421239.57,19054,14.06,72756.8,-1.19,-7.49,-7.35,0,*5B
1494421240.84,19055,14.06,72754.8,-1.19,-7.73,-7.77,0,*55
1494421242.04,19056,14.06,72756.5,-1.17,-8.29,-8.37,0,*53
1494421243.22,19057,14.13,72758.8,-1.17,-8.29,-8.29,0,*5D
1494421244.41,19058,14.06,72756.8,-1.17,-8.17,-8.29,0,*5F
1494421245.6,19059,14.06,72756.5,-1.17,-8.25,-8.29,0,*5F
1494421246.85,19060,14.06,72756.5,-1.17,-7.73,-7.57,0,*5F
1494421248.09,19061,14.06,72752.8,-1.15,-7.01,-7.05,0,*5E
1494421249.32,19062,14.06,72758.3,-1.15,-7.05,-7.19,0,*54
1494421250.55,19063,14.13,72762.8,-1.11,-7.19,-7.31,0,*56
1494421251.79,19064,14.06,72754.8,-1.13,-9.31,-9.57,0,*59
1494421253.0,19065,14.06,72758.3,-1.11,-8.89,-9.23,0,*5B
1494421254.22,19066,14.06,72756.3,-1.13,-8.25,-8.59,0,*50
1494421255.46,19067,14.06,72756.3,-1.13,-8.51,-8.75,0,*5C
1494421256.69,19068,14.06,72756.0,-1.11,-8.07,-8.17,0,*56
1494421257.93,19069,14.06,72758.0,-1.11,-7.77,-8.03,0,*5A
1494421259.15,19070,14.06,72756.3,-1.11,-7.27,-7.53,0,*5D
1494421260.37,19071,14.06,72756.5,-1.05,-8.59,-8.93,0,*5C
1494421261.57,19072,14.06,72756.8,-1.07,-7.83,-7.83,0,*5B
1494421262.8,19073,14.06,72756.3,-1.05,-7.87,-7.87,0,*58
1494421264.07,19074,14.06,72754.5,-1.01,-8.51,-8.51,0,*5B
1494421265.27,19075,14.06,72756.5,-1.03,-9.23,-9.31,0,*5B
1494421266.46,19076,14.06,72756.3,-1.03,-9.31,-9.19,0,*51
1494421267.69,19077,14.06,72754.5,-1.01,-8.55,-8.45,0,*59
1494421268.92,19078,14.06,72752.0,-1.03,-9.37,-9.23,0,*50
1494421270.16,19079,14.06,72756.0,-1.03,-9.53,-9.37,0,*56
1494421271.37,19080,14.06,72756.0,-1.03,-10.19,-9.93,0,*68
1494421272.63,19081,14.06,72756.3,-1.01,-10.15,-9.83,0,*66
1494421273.9,19082,14.06,72758.5,-1.05,-9.53,-9.11,0,*50
1494421275.12,19083,14.06,72754.3,-1.05,-9.05,-8.71,0,*55
1494421276.37,19084,14.06,72758.3,-1.05,-9.37,-8.93,0,*5F
1494421277.64,19085,14.06,72756.8,-1.05,-9.53,-9.37,0,*53
1494421278.87,19086,14.06,72758.8,-1.05,-9.61,-9.31,0,*57
1494421280.11,19087,14.06,72756.0,-1.05,-9.53,-9.31,0,*57
1494421281.36,19088,14.13,72762.3,-1.07,-10.67,-10.53,0,*59
1494421282.62,19089,14.06,72756.8,-1.13,-11.11,-10.71,0,*5D
1494421283.89,19090,14.06,72752.5,-1.13,-10.71,-10.27,0,*51
1494421285.11,19091,14.06,72756.8,-1.13,-10.31,-9.89,0,*68
1494421286.34,19092,14.06,72756.8,-1.13,-10.31,-9.89,0,*6B
1494421287.55,19093,14.06,72756.5,-1.15,-10.53,-9.97,0,*67
1494421288.74,19094,14.06,72758.8,-1.17,-9.75,-9.05,0,*55
1494421289.94,19095,14.06,72756.5,-1.15,-9.27,-8.59,0,*59
1494421291.15,19096,14.06,72758.3,-1.15,-9.57,-8.93,0,*5B
1494421292.38,19097,14.06,72760.8,-1.15,-10.01,-9.45,0,*6B
1494421293.6,19098,14.06,72756.5,-1.15,-10.97,-10.31,0,*50
1494421294.83,19099,14.06,72758.3,-1.17,-12.07,-11.45,0,*5A
1494421296.08,19100,14.06,72756.0,-1.17,-12.15,-11.59,0,*55
1494421297.29,19101,14.06,72756.0,-1.21,-10.89,-10.31,0,*59
1494421298.49,19102,14.06,72756.5,-1.21,-10.31,-9.79,0,*6D
1494421299.72,19103,14.06,72756.0,-1.25,-10.71,-10.23,0,*5B
1494421300.93,19104,14.06,72754.5,-1.25,-10.93,-10.53,0,*57
1494421302.17,19105,14.06,72756.8,-1.25,-10.67,-10.15,0,*5F
1494421303.38,19106,14.06,72754.0,-1.27,-9.67,-9.31,0,*58
1494421304.63,19107,14.06,72758.5,-1.27,-8.81,-8.37,0,*57
1494421305.86,19108,14.13,72756.3,-1.27,-8.67,-8.37,0,*50
1494421307.11,19109,14.06,72754.0,-1.23,-9.15,-8.93,0,*5F
1494421308.3,19110,14.06,72756.0,-1.25,-9.01,-8.63,0,*5B
1494421309.52,19111,14.06,72756.8,-1.23,-8.89,-8.59,0,*54
1494421310.8,19112,14.06,72754.8,-1.23,-9.15,-8.81,0,*56
1494421312.04,19113,14.06,72756.5,-1.25,-9.41,-9.15,0,*5C
1494421313.29,19114,14.06,72756.8,-1.23,-9.75,-9.61,0,*59
1494421314.53,19115,14.06,72754.8,-1.23,-9.15,-8.75,0,*5A
1494421315.73,19116,14.06,72758.3,-1.25,-8.63,-8.45,0,*5C
1494421316.92,19117,14.06,72758.0,-1.25,-9.27,-9.05,0,*59
1494421318.17,19118,14.06,72754.0,-1.23,-8.51,-8.33,0,*54
1494421319.39,19119,14.06,72758.0,-1.23,-8.63,-8.45,0,*55
1494421320.64,19120,14.06,72756.0,-1.23,-8.51,-8.37,0,*5B
1494421321.84,19121,14.06,72756.0,-1.21,-8.85,-8.71,0,*53
1494421323.07,19122,14.06,72758.3,-1.21,-9.15,-9.01,0,*5E
1494421324.26,19123,14.06,72754.3,-1.21,-8.97,-8.75,0,*56
1494421325.49,19124,14.06,72756.5,-1.23,-8.71,-8.37,0,*5D
1494421326.71,19125,14.06,72758.0,-1.23,-8.45,-8.33,0,*5F
1494421327.9,19126,14.06,72756.3,-1.21,-8.85,-8.71,0,*54
1494421329.09,19127,14.06,72756.3,-1.21,-8.75,-8.59,0,*50
1494421330.29,19128,14.06,72756.3,-1.21,-8.71,-8.45,0,*56
1494421331.51,19129,14.06,72758.0,-1.19,-8.71,-8.55,0,*5D
1494421332.75,19130,14.06,72758.5,-1.19,-8.51,-8.17,0,*51
1494421333.99,19131,14.06,72754.3,-1.19,-8.37,-8.03,0,*55
1494421335.24,19132,14.06,72756.0,-1.19,-8.37,-8.11,0,*55
1494421336.46,19133,14.13,72760.8,-1.19,-8.41,-8.25,0,*52
1494421337.65,19134,14.06,72754.5,-1.17,-8.67,-8.37,0,*5C
1494421338.88,19135,14.06,72754.5,-1.15,-8.25,-8.07,0,*5A
1494421340.09,19136,14.06,72754.0,-1.17,-8.21,-7.95,0,*5B
1494421341.37,19137,14.06,72756.8,-1.13,-8.07,-7.65,0,*55
1494421342.62,19138,14.13,72756.0,-1.13,-8.21,-7.95,0,*51
1494421343.84,19139,14.06,72758.5,-1.11,-8.33,-8.07,0,*55
1494421345.04,19140,14.06,72754.5,-1.11,-8.63,-8.41,0,*5C
1494421346.24,19141,14.06,72752.8,-1.11,-8.55,-8.29,0,*56
1494421347.44,19142,14.06,72756.5,-1.11,-8.45,-8.21,0,*5C
1494421348.64,19143,14.06,72756.0,-1.11,-8.63,-8.29,0,*51
1494421349.83,19144,14.06,72754.3,-1.07,-8.59,-8.33,0,*53
1494421351.03,19145,14.06,72752.5,-1.07,-8.59,-8.33,0,*52
1494421352.25,19146,14.06,72754.0,-1.05,-8.93,-8.59,0,*59
1494421353.47,19147,14.13,72756.8,-1.05,-8.41,-8.17,0,*5D
1494421354.71,19148,14.06,72754.5,-1.05,-8.25,-8.03,0,*55
1494421355.93,19149,14.06,72756.0,-1.05,-8.41,-8.29,0,*5E
1494421357.16,19150,14.06,72756.0,-1.05,-8.55,-8.41,0,*5D
1494421358.37,19151,14.06,72756.8,-1.05,-8.71,-8.67,0,*5E
1494421359.63,19152,14.06,72752.0,-1.05,-9.11,-8.85,0,*56
1494421360.9,19153,14.06,72752.0,-1.05,-9.49,-9.37,0,*52
1494421362.11,19154,14.06,72758.0,-1.07,-8.89,-8.75,0,*5D
1494421363.3,19155,14.06,72758.0,-1.07,-8.75,-8.71,0,*5B
1494421364.5,19156,14.06,72754.5,-1.07,-8.75,-8.71,0,*58
1494421365.71,19157,14.06,72756.0,-1.07,-9.01,-8.89,0,*5C
1494421366.91,19158,14.06,72756.8,-1.07,-8.45,-8.33,0,*53
1494421368.15,19159,14.13,72758.3,-1.05,-8.51,-8.29,0,*5E
1494421369.36,19160,14.13,72756.8,-1.07,-9.01,-8.89,0,*58
1494421370.57,19161,14.06,72752.0,-1.07,-8.85,-8.71,0,*53
1494421371.76,19162,14.06,72754.8,-1.11,-8.75,-8.71,0,*58
1494421372.98,19163,14.06,72752.8,-1.11,-9.53,-9.67,0,*5A
1494421374.18,19164,14.06,72754.8,-1.11,-9.97,-9.97,0,*5A
1494421375.4,19165,14.06,72758.0,-1.13,-9.31,-9.27,0,*5E
1494421376.63,19166,14.06,72756.0,-1.13,-9.27,-9.19,0,*57
1494421377.84,19167,14.13,72756.5,-1.15,-10.27,-10.23,0,*59
1494421379.05,19168,14.06,72758.8,-1.17,-10.31,-10.31,0,*50
1494421380.26,19169,14.06,72754.3,-1.19,-9.89,-9.93,0,*54
1494421381.51,19170,14.06,72756.0,-1.21,-9.37,-9.37,0,*5C
1494421382.76,19171,14.06,72754.0,-1.21,-9.37,-9.37,0,*5D
1494421383.98,19172,14.06,72754.3,-1.21,-9.23,-9.15,0,*5B
1494421385.2,19173,14.06,72754.3,-1.23,-9.01,-9.05,0,*59
1494421386.43,19174,14.13,72758.5,-1.23,-8.71,-8.75,0,*5E
1494421387.65,19175,14.06,72754.3,-1.23,-8.63,-8.71,0,*58
1494421388.87,19176,14.06,72752.0,-1.23,-9.05,-9.19,0,*55
1494421390.1,19177,14.06,72752.0,-1.23,-8.93,-9.05,0,*57
1494421391.34,19178,14.13,72758.5,-1.23,-9.31,-9.41,0,*51
1494421392.57,19179,14.06,72752.0,-1.23,-8.93,-9.01,0,*5D
1494421393.8,19180,14.06,72752.8,-1.23,-8.71,-8.71,0,*51
1494421395.07,19181,14.06,72756.8,-1.23,-9.41,-9.45,0,*54
1494421396.32,19182,14.13,72758.5,-1.23,-9.15,-9.19,0,*5F
1494421397.53,19183,14.06,72758.0,-1.25,-9.83,-9.97,0,*51
1494421398.75,19184,14.06,72754.0,-1.25,-9.71,-9.83,0,*5E
1494421399.99,19185,14.06,72754.5,-1.25,-9.57,-9.61,0,*57
1494421401.25,19186,14.06,72756.5,-1.29,-10.41,-10.41,0,*5D
1494421402.54,19187,14.13,72758.8,-1.35,-10.63,-10.75,0,*56
1494421403.83,19188,14.13,72758.5,-1.35,-10.67,-10.75,0,*5D
1494421405.07,19189,14.06,72752.0,-1.39,-10.23,-10.35,0,*54
1494421406.3,19190,14.06,72754.3,-1.41,-10.75,-10.85,0,*5B
1494421407.53,19191,14.13,72756.0,-1.43,-10.45,-10.53,0,*50
1494421408.74,19192,14.06,72758.5,-1.45,-10.09,-10.19,0,*53
1494421409.94,19193,14.06,72758.0,-1.45,-9.93,-10.05,0,*64
1494421411.18,19194,14.13,72758.3,-1.47,-10.23,-10.27,0,*52
1494421412.43,19195,14.06,72754.5,-1.49,-9.79,-9.83,0,*5C
1494421413.66,19196,14.06,72754.5,-1.47,-9.79,-9.79,0,*54
1494421414.93,19197,14.06,72756.0,-1.49,-9.53,-9.53,0,*5B
1494421416.15,19198,14.06,72754.3,-1.49,-9.05,-9.05,0,*54
1494421417.4,19199,14.06,72754.8,-1.47,-9.15,-9.31,0,*5D
1494421418.65,19200,14.13,72756.3,-1.49,-9.27,-9.41,0,*56
1494421419.88,19201,14.06,72752.0,-1.49,-8.89,-9.01,0,*56
1494421421.13,19202,14.13,72756.0,-1.47,-9.53,-9.67,0,*5D
1494421422.33,19203,14.13,72758.5,-1.51,-9.71,-9.75,0,*58
1494421423.59,19204,14.06,72754.5,-1.53,-9.57,-9.61,0,*5C
1494421424.81,19205,14.13,72756.5,-1.53,-9.19,-9.23,0,*51
1494421426.03,19206,14.13,72756.3,-1.51,-9.57,-9.71,0,*5D
1494421427.25,19207,14.13,72756.8,-1.51,-9.75,-9.83,0,*51
1494421428.53,19208,14.06,72752.8,-1.53,-9.37,-9.45,0,*50
1494421429.76,19209,14.06,72756.0,-1.53,-9.71,-9.89,0,*53
1494421430.97,19210,14.06,72754.5,-1.59,-10.09,-10.19,0,*57
1494421432.19,19211,14.06,72756.0,-1.59,-10.23,-10.35,0,*50
1494421433.43,19212,14.06,72752.8,-1.63,-10.23,-10.41,0,*59
1494421434.68,19213,14.06,72754.5,-1.61,-9.83,-9.93,0,*5F
1494421435.96,19214,14.06,72752.3,-1.61,-9.41,-9.45,0,*5D
1494421437.16,19215,14.13,72756.3,-1.63,-9.19,-9.31,0,*50
1494421438.36,19216,14.13,72758.3,-1.63,-9.19,-9.27,0,*54
1494421439.62,19217,14.13,72756.5,-1.61,-9.01,-9.11,0,*5B
1494421440.9,19218,14.13,72760.8,-1.61,-9.11,-9.11,0,*55
1494421442.11,19219,14.06,72754.0,-1.63,-8.89,-8.89,0,*56
1494421443.34,19220,14.13,72756.8,-1.61,-8.75,-8.85,0,*51
1494421444.54,19221,14.06,72752.3,-1.63,-8.63,-8.71,0,*5E
1494421445.78,19222,14.13,72756.3,-1.61,-8.85,-8.85,0,*5C
1494421446.97,19223,14.13,72758.8,-1.63,-8.63,-8.63,0,*5F
1494421448.21,19224,14.13,72756.5,-1.61,-8.89,-8.89,0,*5A
1494421449.41,19225,14.06,72754.5,-1.63,-8.97,-8.97,0,*59
1494421450.66,19226,14.13,72756.5,-1.61,-8.45,-8.51,0,*5D
1494421451.88,19227,14.13,72756.0,-1.61,-8.63,-8.75,0,*5E
1494421453.12,19228,14.13,72756.0,-1.59,-9.15,-9.23,0,*58
1494421454.35,19229,14.13,72758.8,-1.61,-9.01,-9.01,0,*57
1494421455.58,19230,14.13,72756.8,-1.61,-9.27,-9.31,0,*58
1494421456.8,19231,14.06,72754.8,-1.63,-9.31,-9.45,0,*5F
1494421458.06,19232,14.06,72754.3,-1.63,-9.41,-9.45,0,*5B
1494421459.26,19233,14.13,72756.3,-1.63,-9.19,-9.27,0,*53
1494421460.46,19234,14.06,72752.0,-1.63,-8.59,-8.63,0,*50
1494421461.65,19235,14.13,72756.0,-1.63,-8.45,-8.59,0,*55
1494421462.91,19236,14.06,72756.0,-1.63,-8.51,-8.51,0,*5B
1494421464.16,19237,14.13,72756.5,-1.63,-8.51,-8.51,0,*5A
1494421465.38,19238,14.06,72754.5,-1.61,-8.59,-8.59,0,*57
1494421466.61,19239,14.13,72758.8,-1.61,-9.27,-9.27,0,*56
1494421467.83,19240,14.13,72758.0,-1.61,-9.27,-9.27,0,*58
1494421469.08,19241,14.13,72756.3,-1.61,-9.19,-9.15,0,*55
1494421470.34,19242,14.13,72756.0,-1.61,-8.45,-8.51,0,*5F
1494421471.56,19243,14.13,72756.5,-1.61,-8.71,-8.75,0,*5F
1494421472.77,19244,14.13,72754.3,-1.63,-8.45,-8.45,0,*5E
1494421474.0,19245,14.06,72752.3,-1.61,-8.45,-8.45,0,*5D
1494421475.22,19246,14.06,72754.8,-1.61,-8.71,-8.71,0,*5E
1494421476.45,19247,14.13,72756.5,-1.61,-8.71,-8.71,0,*5F
1494421477.68,19248,14.13,72752.5,-1.61,-8.71,-8.71,0,*50
1494421478.9,19249,14.06,72754.3,-1.59,-8.81,-8.71,0,*55
1494421480.11,19250,14.13,72756.0,-1.59,-8.93,-8.85,0,*55
1494421481.34,19251,14.13,72756.0,-1.59,-8.81,-8.85,0,*57
1494421482.6,19252,14.13,72756.8,-1.59,-9.15,-9.15,0,*50
1494421483.82,19253,14.13,72758.3,-1.55,-8.81,-8.71,0,*52
1494421485.03,19254,14.06,72752.3,-1.59,-8.85,-8.85,0,*56
1494421486.24,19255,14.06,72752.0,-1.59,-8.71,-8.85,0,*5C
1494421487.49,19256,14.13,72752.8,-1.59,-8.81,-8.81,0,*54
1494421488.69,19257,14.13,72754.5,-1.59,-9.05,-9.05,0,*55
1494421489.9,19258,14.06,72754.0,-1.59,-8.71,-8.85,0,*51
1494421491.15,19259,14.06,72754.0,-1.59,-8.81,-8.81,0,*5B
1494421492.35,19260,14.13,72754.3,-1.59,-8.71,-8.71,0,*51
1494421493.61,19261,14.13,72754.0,-1.59,-9.11,-9.15,0,*54
1494421494.81,19262,14.06,72752.5,-1.59,-8.97,-9.05,0,*59
1494421496.07,19263,14.13,72752.5,-1.59,-9.11,-9.15,0,*56
1494421497.32,19264,14.13,72756.3,-1.61,-9.31,-9.41,0,*59
1494421498.58,19265,14.06,72754.8,-1.61,-9.01,-9.11,0,*5E
1494421499.81,19266,14.06,72754.3,-1.61,-8.89,-8.97,0,*53
1494421501.05,19267,14.13,72758.8,-1.61,-8.85,-9.01,0,*50
1494421502.31,19268,14.06,72754.8,-1.61,-9.01,-9.11,0,*53
1494421503.57,19269,14.13,72758.3,-1.61,-9.15,-9.27,0,*52
1494421504.79,19270,14.13,72754.0,-1.63,-9.31,-9.41,0,*5E
1494421506.03,19271,14.13,72756.5,-1.63,-9.83,-10.01,0,*6A
1494421507.3,19272,14.13,72752.3,-1.65,-9.49,-9.49,0,*5D
1494421508.5,19273,14.13,72758.0,-1.67,-9.19,-9.23,0,*57
1494421509.75,19274,14.13,72754.3,-1.65,-9.15,-9.23,0,*5E
1494421510.97,19275,14.13,72754.3,-1.65,-9.19,-9.19,0,*5A
1494421512.25,19276,14.13,72754.3,-1.65,-9.37,-9.49,0,*50
1494421513.53,19277,14.06,72754.3,-1.65,-9.37,-9.49,0,*51
1494421514.73,19278,14.13,72754.3,-1.67,-9.75,-9.89,0,*56
1494421515.93,19279,14.13,72754.0,-1.67,-9.75,-9.79,0,*58
1494421517.13,19280,14.13,72754.8,-1.67,-9.67,-9.79,0,*5D
1494421518.35,19281,14.06,72752.3,-1.71,-9.79,-9.83,0,*51
1494421519.55,19282,14.13,72754.0,-1.71,-9.93,-10.05,0,*60
1494421520.75,19283,14.13,72752.5,-1.71,-9.97,-10.09,0,*69
1494421521.98,19284,14.13,72754.5,-1.71,-9.45,-9.67,0,*51
1494421523.25,19285,14.13,72756.5,-1.73,-9.45,-9.57,0,*51
1494421524.5,19286,14.13,72754.0,-1.75,-9.37,-9.45,0,*52
1494421525.75,19287,14.13,72754.8,-1.73,-9.15,-9.31,0,*56
1494421527.01,19288,14.13,72754.5,-1.73,-9.53,-9.57,0,*5B
1494421528.24,19289,14.13,72756.8,-1.73,-9.97,-10.15,0,*6C
1494421529.45,19290,14.13,72758.0,-1.75,-9.97,-10.15,0,*62
1494421530.7,19291,14.06,72754.0,-1.77,-9.57,-9.71,0,*57
1494421531.94,19292,14.13,72758.8,-1.77,-9.57,-9.75,0,*50
1494421533.16,19293,14.13,72756.8,-1.81,-9.79,-9.83,0,*5D
1494421534.4,19294,14.13,72756.5,-1.81,-10.27,-10.41,0,*5F
1494421535.65,19295,14.13,72756.5,-1.83,-10.53,-10.79,0,*54
1494421536.91,19296,14.13,72758.3,-1.83,-10.49,-10.79,0,*5C
1494421538.19,19297,14.13,72760.3,-1.87,-11.37,-11.81,0,*57
1494421539.42,19298,14.06,72756.0,-1.87,-10.93,-11.11,0,*5E
1494421540.65,19299,14.13,72758.3,-1.89,-10.71,-10.97,0,*52
1494421541.88,19300,14.13,72756.0,-1.93,-10.53,-10.75,0,*54
1494421543.13,19301,14.13,72760.3,-1.93,-11.37,-11.59,0,*59
1494421544.37,19302,14.13,72760.8,-1.93,-10.49,-10.67,0,*5E
1494421545.6,19303,14.13,72756.3,-1.97,-10.67,-10.93,0,*5C
1494421546.86,19304,14.13,72756.5,-1.97,-10.67,-10.79,0,*5F
1494421548.09,19305,14.13,72756.3,-1.97,-10.57,-10.79,0,*5D
1494421549.36,19306,14.06,72754.3,-1.99,-10.63,-10.89,0,*58
1494421550.58,19307,14.13,72756.0,-2.01,-10.63,-10.85,0,*57
1494421551.84,19308,14.13,72754.5,-2.05,-11.29,-11.51,0,*5B
1494421553.1,19309,14.13,72756.5,-2.05,-11.33,-11.51,0,*51
1494421554.34,19310,14.13,72756.5,-2.07,-10.93,-11.19,0,*5C
1494421555.55,19311,14.13,72754.8,-2.09,-10.27,-10.49,0,*58
1494421556.77,19312,14.13,72758.5,-2.11,-9.71,-9.97,0,*52
1494421557.96,19313,14.13,72754.8,-2.09,-9.75,-9.89,0,*51
1494421559.16,19314,14.06,72752.3,-2.09,-9.67,-9.89,0,*55
1494421560.39,19315,14.06,72754.5,-2.11,-10.01,-10.23,0,*5D
1494421561.61,19316,14.13,72758.5,-2.11,-9.97,-10.15,0,*6C
1494421562.85,19317,14.13,72758.8,-2.11,-9.75,-10.01,0,*64
1494421564.07,19318,14.13,72756.0,-2.11,-9.71,-9.97,0,*58
1494421565.32,19319,14.13,72754.3,-2.11,-9.83,-10.01,0,*63
1494421566.58,19320,14.13,72756.8,-2.11,-9.83,-10.01,0,*69
1494421567.82,19321,14.13,72756.8,-2.11,-9.57,-9.75,0,*5A
1494421569.06,19322,14.13,72756.8,-2.13,-9.49,-9.71,0,*50
1494421570.28,19323,14.13,72758.8,-2.13,-9.05,-9.19,0,*57
1494421571.53,19324,14.13,72758.3,-2.13,-8.93,-9.11,0,*56
1494421572.76,19325,14.13,72756.3,-2.11,-9.01,-9.19,0,*57
1494421573.99,19326,14.13,72758.8,-2.11,-9.05,-9.27,0,*5D
1494421575.2,19327,14.13,72758.8,-2.09,-9.31,-9.57,0,*55
1494421576.42,19328,14.13,72758.3,-2.11,-9.67,-9.97,0,*5C
1494421577.67,19329,14.13,72758.8,-2.11,-9.83,-10.01,0,*60
1494421578.95,19330,14.13,72756.8,-2.11,-9.15,-9.41,0,*5B
1494421580.18,19331,14.13,72754.5,-2.11,-9.71,-9.89,0,*5C
1494421581.41,19332,14.13,72756.5,-2.13,-9.79,-10.01,0,*6D
1494421582.68,19333,14.13,72754.8,-2.13,-9.37,-9.61,0,*58
1494421583.93,19334,14.13,72756.0,-2.13,-9.31,-9.57,0,*5C
1494421585.17,19335,14.13,72756.8,-2.13,-9.61,-9.93,0,*50
1494421586.37,19336,14.13,72758.0,-2.15,-9.93,-10.09,0,*63
1494421587.62,19337,14.13,72758.8,-2.15,-9.41,-9.61,0,*5B
1494421588.85,19338,14.13,72754.8,-2.15,-9.27,-9.53,0,*55
1494421590.07,19339,14.06,72752.3,-2.13,-8.85,-8.97,0,*52
1494421591.29,19340,14.13,72756.0,-2.13,-9.05,-9.31,0,*58
1494421592.57,19341,14.06,72754.8,-2.13,-9.11,-9.37,0,*5A
1494421593.82,19342,14.13,72756.5,-2.13,-9.31,-9.61,0,*58
1494421595.05,19343,14.13,72758.5,-2.11,-9.01,-9.27,0,*5A
1494421596.27,19344,14.13,72756.8,-2.11,-8.93,-9.27,0,*57
1494421597.53,19345,14.13,72754.8,-2.11,-9.19,-9.53,0,*56
1494421598.75,19346,14.13,72754.3,-2.11,-8.93,-9.27,0,*55
1494421599.95,19347,14.13,72758.3,-2.09,-8.93,-9.27,0,*5D
1494421601.2,19348,14.06,72756.0,-2.11,-9.53,-9.89,0,*52
1494421602.41,19349,14.13,72754.0,-2.09,-9.71,-10.01,0,*62
1494421603.64,19350,14.13,72754.0,-2.11,-9.75,-10.01,0,*67
1494421604.88,19351,14.13,72758.0,-2.11,-9.53,-9.89,0,*5A
1494421606.1,19352,14.13,72756.3,-2.11,-9.67,-9.97,0,*51
1494421607.34,19353,14.06,72752.3,-2.13,-9.57,-9.89,0,*5E
1494421608.62,19354,14.13,72754.8,-2.11,-9.15,-9.41,0,*59
1494421609.87,19355,14.13,72752.8,-2.11,-8.93,-9.15,0,*56
1494421611.09,19356,14.13,72756.3,-2.11,-8.71,-8.93,0,*56
1494421612.28,19357,14.13,72752.8,-2.09,-8.59,-8.71,0,*58
1494421613.48,19358,14.13,72754.5,-2.09,-8.71,-8.89,0,*5A
1494421614.69,19359,14.13,72756.0,-2.05,-8.75,-9.01,0,*52
1494421615.91,19360,14.13,72756.3,-2.07,-8.59,-8.75,0,*56
1494421617.14,19361,14.06,72754.5,-2.05,-8.85,-9.11,0,*57
1494421618.33,19362,14.13,72754.0,-2.05,-9.67,-9.93,0,*53
1494421619.59,19363,14.13,72754.0,-2.07,-9.41,-9.67,0,*5F
1494421620.87,19364,14.13,72754.8,-2.07,-9.37,-9.61,0,*5F
1494421622.1,19365,14.13,72758.0,-2.07,-9.79,-10.05,0,*6E
1494421623.35,19366,14.13,72754.3,-2.07,-9.27,-9.61,0,*5C
1494421624.57,19367,14.13,72754.0,-2.07,-9.93,-10.23,0,*6C
1494421625.78,19368,14.13,72758.0,-2.09,-9.75,-10.01,0,*65
1494421626.98,19369,14.06,72752.5,-2.09,-9.97,-10.09,0,*60
1494421628.25,19370,14.06,72754.8,-2.11,-9.41,-9.57,0,*59
1494421629.45,19371,14.13,72756.3,-2.09,-9.97,-10.27,0,*65
1494421630.67,19372,14.13,72752.0,-2.11,-9.89,-10.15,0,*61
1494421631.9,19373,14.13,72754.5,-2.11,-9.97,-10.23,0,*6A
1494421633.12,19374,14.06,72754.5,-2.11,-10.57,-10.85,0,*55
1494421634.35,19375,14.13,72756.3,-2.11,-9.75,-9.97,0,*57
1494421635.57,19376,14.13,72750.8,-2.15,-9.31,-9.49,0,*53
1494421636.81,19377,14.13,72754.0,-2.13,-9.23,-9.57,0,*58
1494421638.06,19378,14.13,72754.0,-2.13,-9.61,-9.79,0,*5D
1494421639.27,19379,14.13,72756.3,-2.13,-9.05,-9.31,0,*52
1494421640.52,19380,14.06,72752.0,-2.13,-9.49,-9.71,0,*58
1494421641.78,19381,14.13,72756.3,-2.15,-9.37,-9.53,0,*56
1494421643.0,19382,14.13,72758.8,-2.13,-8.93,-9.23,0,*5B
1494421644.22,19383,14.13,72752.8,-2.13,-8.85,-8.93,0,*57
1494421645.44,19384,14.13,72754.5,-2.13,-9.05,-9.23,0,*53
1494421646.69,19385,14.13,72754.5,-2.11,-9.15,-9.31,0,*52
1494421647.94,19386,14.06,72752.3,-2.11,-9.15,-9.31,0,*51
1494421649.19,19387,14.13,72752.8,-2.11,-8.71,-8.81,0,*59
1494421650.41,19388,14.13,72754.8,-2.11,-8.45,-8.63,0,*5D
1494421651.63,19389,14.13,72756.8,-2.09,-8.89,-9.15,0,*55
1494421652.89,19390,14.13,72754.3,-2.09,-10.41,-10.67,0,*5D
1494421654.14,19391,14.13,72752.8,-2.11,-9.41,-9.67,0,*55
1494421655.39,19392,14.13,72752.3,-2.13,-9.49,-9.79,0,*53
1494421656.59,19393,14.13,72756.3,-2.15,-9.67,-9.79,0,*58
1494421657.83,19394,14.13,72754.5,-2.13,-9.61,-9.89,0,*50
1494421659.05,19395,14.13,72752.8,-2.13,-9.01,-9.23,0,*57
1494421660.3,19396,14.13,72754.8,-2.15,-9.37,-9.61,0,*51
1494421661.55,19397,14.13,72756.3,-2.13,-9.45,-9.75,0,*56
1494421662.8,19398,14.13,72752.3,-2.13,-9.23,-9.45,0,*5A
1494421664.03,19399,14.13,72752.0,-2.15,-9.11,-9.27,0,*58
1494421665.25,19400,14.13,72756.3,-2.13,-9.05,-9.23,0,*58
1494421666.46,19401,14.13,72752.3,-2.13,-8.63,-8.67,0,*59
1494421667.68,19402,14.13,72754.3,-2.13,-8.75,-8.97,0,*52
1494421668.91,19403,14.13,72752.8,-2.13,-8.85,-8.97,0,*5C
1494421670.1,19404,14.13,72752.5,-2.15,-9.19,-9.31,0,*54
1494421671.35,19405,14.13,72754.3,-2.13,-9.11,-9.31,0,*5B
1494421672.57,19406,14.13,72754.3,-2.13,-9.05,-9.23,0,*5E
1494421673.81,19407,14.13,72754.8,-2.13,-9.31,-9.57,0,*5B
1494421675.05,19408,14.13,72752.8,-2.13,-9.61,-9.71,0,*55
1494421676.33,19409,14.13,72754.8,-2.13,-9.37,-9.45,0,*50
1494421677.56,19410,14.13,72752.8,-2.15,-9.01,-9.15,0,*5E
1494421678.78,19411,14.13,72754.0,-2.15,-9.61,-9.67,0,*5C
1494421680.01,19412,14.13,72754.5,-2.15,-9.15,-9.23,0,*5C
1494421681.24,19413,14.13,72756.0,-2.15,-9.01,-9.15,0,*5D
1494421682.51,19414,14.06,72750.5,-2.17,-9.11,-9.15,0,*59
1494421683.74,19415,14.13,72754.3,-2.15,-9.01,-9.15,0,*5B
1494421684.99,19416,14.06,72750.5,-2.17,-8.81,-8.89,0,*57
1494421686.23,19417,14.06,72748.8,-2.17,-8.71,-8.81,0,*51
1494421687.46,19418,14.13,72756.0,-2.17,-8.85,-9.01,0,*5C
1494421688.68,19419,14.06,72752.0,-2.17,-8.85,-8.97,0,*53
1494421689.91,19420,14.13,72752.5,-2.13,-8.93,-9.05,0,*50
1494421691.16,19421,14.13,72754.8,-2.17,-8.89,-9.15,0,*5F
1494421692.42,19422,14.13,72754.5,-2.17,-8.81,-8.81,0,*58
1494421693.65,19423,14.13,72752.0,-2.15,-9.23,-9.37,0,*5E
1494421694.85,19424,14.13,72752.0,-2.15,-8.89,-8.97,0,*53
1494421696.07,19425,14.13,72754.8,-2.13,-8.75,-8.85,0,*54
1494421697.28,19426,14.06,72748.5,-2.15,-8.71,-8.89,0,*59
1494421698.51,19427,14.06,72750.5,-2.15,-9.23,-9.37,0,*5A
1494421699.74,19428,14.13,72750.5,-2.15,-9.23,-9.37,0,*55
1494421701.01,19429,14.06,72750.5,-2.17,-9.37,-9.37,0,*53
1494421702.26,19430,14.06,72748.5,-2.17,-8.97,-9.15,0,*50
1494421703.52,19431,14.13,72750.8,-2.17,-8.81,-8.81,0,*5A
1494421704.77,19432,14.13,72752.5,-2.17,-9.15,-9.23,0,*5C
1494421706.02,19433,14.13,72758.0,-2.17,-9.27,-9.37,0,*59